Date String (YYYY-MM-DD hh:mm:ss) UTC,Instrument flags,Ambient pressure (hPa),Sample flow (lpm),Bypass flow (lpm),Sample temperature (°C),Ambient temperature (°C),ASC tube jacket temperature (°C),LED temperature (°C),Box temperature (°C),Sample RH (%),Span deviation,Mass concentration (μg/m³),Mass concentration (μg/m³),Mass concentration (μg/m³)
DateTimeUTC,F1_M11,P_M11,Q1_M11,Q2_M11,T1_M11,T2_M11,T3_M11,T4_M11,T5_M11,U1_M11,ZSPAN_M11,X0_M11,X2_M11,X1_M11
2022-12-23 16:00:00,,0832.9,5.01,0.00,22.2,21.0,00.0,30.9,23.7,02.4,0002.1,0009.63,0005.81,0005.35
2022-12-23 16:01:00,,0832.8,5.04,0.00,22.1,20.6,00.0,30.9,23.6,02.5,0001.9,0009.83,0005.85,0005.36
2022-12-23 16:02:00,,0832.7,4.99,0.00,22.1,20.6,00.0,30.9,23.6,02.5,0001.7,0010.20,0005.87,0005.36
2022-12-23 16:03:00,,0832.7,4.98,0.00,22.1,21.6,00.0,30.9,23.8,02.5,0001.6,0010.11,0005.89,0005.37
2022-12-23 16:04:00,,0832.8,5.04,0.00,22.2,22.7,00.0,30.9,24.1,02.4,0001.9,0010.28,0005.93,0005.38
2022-12-23 16:05:00,,0832.8,4.96,0.00,22.3,22.3,00.0,30.9,24.1,02.4,0001.5,0010.25,0005.91,0005.38
2022-12-23 16:06:00,,0832.8,5.04,0.00,22.2,21.5,00.0,30.9,23.9,02.4,0001.6,0010.75,0005.92,0005.37
2022-12-23 16:07:00,,0832.8,4.97,0.00,22.1,20.8,00.0,31.0,23.7,02.4,0002.0,0011.26,0005.93,0005.37
2022-12-23 16:08:00,,0832.9,4.99,0.00,22.0,20.1,00.0,30.9,23.4,02.4,0002.2,0011.54,0005.94,0005.38
2022-12-23 16:09:00,,0832.7,5.03,0.00,21.9,19.7,00.0,30.9,23.2,02.4,0002.2,0011.97,0005.92,0005.37
2022-12-23 16:10:00,,0832.7,5.03,0.00,21.9,20.3,00.0,30.9,23.3,02.4,0002.4,0012.24,0005.93,0005.37
2022-12-23 16:11:00,,0832.8,4.96,0.00,22.0,21.8,00.0,30.8,23.7,02.4,0002.5,0012.21,0005.89,0005.35
2022-12-23 16:12:00,,0832.8,5.02,0.00,22.1,22.3,00.0,30.8,23.9,02.4,0002.4,0012.17,0005.88,0005.35
2022-12-23 16:13:00,,0832.8,4.96,0.00,22.1,21.9,00.0,30.9,23.8,02.4,0002.3,0011.65,0005.88,0005.35
2022-12-23 16:14:00,,0832.7,5.01,0.00,22.1,21.5,00.0,30.9,23.7,02.4,0002.0,0011.70,0005.84,0005.33
2022-12-23 16:15:00,,0832.8,4.93,0.00,22.1,21.1,00.0,30.9,23.7,02.4,0001.5,0012.17,0005.81,0005.32
2022-12-23 16:16:00,,0832.8,4.97,0.00,22.1,20.9,00.0,30.9,23.6,02.4,0001.5,0012.12,0005.81,0005.32
2022-12-23 16:17:00,,0832.8,5.00,0.00,22.0,20.5,00.0,30.9,23.5,02.5,0001.5,0012.24,0005.85,0005.35
2022-12-23 16:18:00,,0832.8,5.03,0.00,22.0,21.1,00.0,30.8,23.6,02.5,0001.6,0012.14,0005.87,0005.36
2022-12-23 16:19:00,,0832.8,4.96,0.00,22.1,22.3,00.0,30.8,23.9,02.5,0002.4,0011.78,0005.85,0005.35
2022-12-23 16:20:00,,0832.8,5.03,0.00,22.2,22.8,00.0,30.9,24.1,02.4,0002.4,0011.95,0005.87,0005.34
2022-12-23 16:21:00,,0832.9,4.96,0.00,22.3,22.3,00.0,30.9,24.0,02.4,0002.4,0011.49,0005.89,0005.35
2022-12-23 16:22:00,,0832.8,5.04,0.00,22.2,21.7,00.0,31.0,23.9,02.4,0002.4,0011.17,0005.87,0005.34
2022-12-23 16:23:00,,0832.9,5.01,0.00,22.2,21.3,00.0,31.0,23.8,02.4,0002.3,0011.24,0005.90,0005.34
2022-12-23 16:24:00,,0832.9,4.96,0.00,22.2,20.9,00.0,31.0,23.7,02.4,0002.4,0011.22,0005.87,0005.32
2022-12-23 16:25:00,,0832.9,5.02,0.00,22.1,20.6,00.0,30.9,23.6,02.4,0002.2,0011.22,0005.84,0005.31
2022-12-23 16:26:00,,0833.0,5.02,0.00,22.1,20.3,00.0,30.9,23.5,02.5,0003.0,0011.18,0005.85,0005.30
2022-12-23 16:27:00,,0832.9,5.02,0.00,22.1,20.8,00.0,30.9,23.6,02.5,0003.3,0010.59,0005.84,0005.29
2022-12-23 16:28:00,,0832.9,4.97,0.00,22.2,22.3,00.0,30.9,24.0,02.5,0003.4,0010.47,0005.80,0005.26
2022-12-23 16:29:00,,0833.1,5.02,0.00,22.3,23.0,00.0,30.9,24.2,02.5,0002.8,0010.10,0005.76,0005.25
2022-12-23 16:30:00,,0833.1,4.97,0.00,22.3,22.5,00.0,31.0,24.1,02.5,0002.5,0009.81,0005.74,0005.24
2022-12-23 16:31:00,,0833.1,5.03,0.00,22.3,21.9,00.0,31.0,24.1,02.4,0002.9,0009.30,0005.70,0005.23
2022-12-23 16:32:00,,0833.1,4.97,0.00,22.3,21.5,00.0,31.0,24.0,02.4,0003.4,0009.38,0005.71,0005.21
2022-12-23 16:33:00,,0833.1,5.00,0.00,22.3,21.2,00.0,31.0,23.9,02.4,0003.3,0009.93,0005.72,0005.21
2022-12-23 16:34:00,,0833.1,5.01,0.00,22.3,20.9,00.0,31.0,23.9,02.4,0000.5,0009.90,0005.70,0005.20
2022-12-23 16:35:00,,0833.0,5.01,0.00,22.2,20.7,00.0,31.0,23.8,02.4,0001.9,0009.84,0005.69,0005.19
2022-12-23 16:36:00,,0833.1,4.98,0.00,22.2,20.6,00.0,31.0,23.7,02.4,0001.5,0009.87,0005.71,0005.17
2022-12-23 16:37:00,,0833.1,4.98,0.00,22.2,21.0,00.0,31.0,23.8,02.4,0002.9,0009.85,0005.71,0005.16
2022-12-23 16:38:00,,0833.2,5.03,0.00,22.3,22.2,00.0,31.0,24.1,02.4,0002.2,0009.79,0005.70,0005.15
2022-12-23 16:39:00,,0833.1,4.97,0.00,22.4,22.9,00.0,31.0,24.3,02.4,0002.2,0009.74,0005.70,0005.14
2022-12-23 16:40:00,,0833.1,5.03,0.00,22.4,22.5,00.0,31.1,24.3,02.4,0002.2,0009.76,0005.71,0005.13
2022-12-23 16:41:00,,0833.1,4.95,0.00,22.4,22.0,00.0,31.1,24.2,02.5,0002.0,0009.90,0005.75,0005.13
2022-12-23 16:42:00,,0833.1,5.03,0.00,22.4,21.6,00.0,31.1,24.1,02.5,0001.7,0009.92,0005.76,0005.13
2022-12-23 16:43:00,,0833.1,5.03,0.00,22.4,21.3,00.0,31.1,24.0,02.5,0001.1,0009.97,0005.76,0005.15
2022-12-23 16:44:00,,0833.1,4.96,0.00,22.4,21.1,00.0,31.1,24.0,02.5,0001.1,0009.81,0005.78,0005.17
2022-12-23 16:45:00,,0833.1,5.00,0.00,22.4,20.9,00.0,31.1,23.9,02.5,0001.4,0010.22,0005.79,0005.20
2022-12-23 16:46:00,,0833.1,5.03,0.00,22.3,20.7,00.0,31.1,23.9,02.5,0001.3,0010.79,0005.83,0005.22
2022-12-23 16:47:00,,0833.2,5.01,0.00,22.3,20.6,00.0,31.1,23.8,02.5,0001.0,0011.27,0005.84,0005.25
2022-12-23 16:48:00,,0833.2,4.97,0.00,22.3,21.4,00.0,31.1,24.0,02.5,0000.5,0011.57,0005.87,0005.30
2022-12-23 16:49:00,,0833.2,5.04,0.00,22.4,22.4,00.0,31.1,24.2,02.5,0000.9,0011.67,0005.93,0005.35
2022-12-23 16:50:00,,0833.1,4.96,0.00,22.5,22.2,00.0,31.1,24.3,02.5,0001.0,0011.98,0006.05,0005.45
2022-12-23 16:51:00,,0833.2,5.02,0.00,22.5,21.9,00.0,31.1,24.2,02.5,0001.3,0012.16,0006.14,0005.56
2022-12-23 16:52:00,,0833.3,5.03,0.00,22.4,21.6,00.0,31.1,24.1,02.5,0001.4,0012.42,0006.18,0005.62
2022-12-23 16:53:00,,0833.3,4.95,0.00,22.4,21.3,00.0,31.1,24.1,02.5,0001.2,0012.73,0006.26,0005.67
2022-12-23 16:54:00,,0833.3,5.03,0.00,22.4,21.2,00.0,31.2,24.0,02.5,0001.6,0012.76,0006.32,0005.72
2022-12-23 16:55:00,,0833.3,5.03,0.00,22.4,21.0,00.0,31.2,24.0,02.5,0001.4,0012.60,0006.30,0005.72
2022-12-23 16:56:00,,0833.2,4.95,0.00,22.3,20.9,00.0,31.1,23.9,02.5,0000.9,0011.99,0006.26,0005.70
2022-12-23 16:57:00,,0833.3,5.03,0.00,22.4,21.5,00.0,31.1,24.0,02.5,0000.8,0011.28,0006.22,0005.68
2022-12-23 16:58:00,,0833.3,5.02,0.00,22.5,22.7,00.0,31.1,24.3,02.5,0001.0,0011.03,0006.21,0005.65
2022-12-23 16:59:00,,0833.3,4.97,0.00,22.6,23.0,00.0,31.1,24.5,02.5,0001.3,0010.62,0006.18,0005.62
